Voltar ao catálogo

STARLINK-3833

AtivoComunicaçõesVLEO
NORAD 52578·PAYLOAD·🇺🇸 United States

Lançado May 13, 2022 de Vandenberg Space Force Base

Loading…

Próximas Passagens (próximas 24 horas)

TLE

AtualizadoSource: CelesTrak SupGP

Época: Sep 15, 2026, 03:01 UTC

1 52578C 22051AU  26258.12618056  .00049964  00000+0  14768-2 0  2586
2 52578  53.1603 349.0849 0001175  88.8711 319.2647 15.34352839    17

Acompanhe STARLINK-3833 em tempo real com AllMySat

Download on the App Store